Zurück zum Katalog

STARLINK-3933

AktivKommunikationVLEO
NORAD 52538·PAYLOAD·🇺🇸 United States

Gestartet May 13, 2022 von Vandenberg Space Force Base

Loading…

Nächste Überflüge (nächste 24 Stunden)

TLE

AktuellSource: CelesTrak SupGP

Epoche: Sep 15, 2026, 02:49 UTC

1 52538C 22051F   26258.11784722  .00032778  00000+0  96852-3 0  2585
2 52538  53.1591 342.6350 0001217  92.7041 159.6084 15.34370950    17

Verfolge STARLINK-3933 in Echtzeit mit AllMySat

Download on the App Store